| time (UTC) | temp F | wind direction | speed MPH | gust MPH | rain 1hr in | rain 24hr in | rain mn in | humidity % | barometer mb |
| 20260504034349 | 65 | 167 | 2.0 | 6.0 | 0.00 | 0.00 | 0.00 | 52 | 1016.6 |
| 20260504033848 | 65 | 190 | 2.0 | 5.0 | 0.00 | 0.00 | 0.00 | 52 | 1016.6 |
| 20260504033346 | 65 | 202 | 2.0 | 5.0 | 0.00 | 0.00 | 0.00 | 52 | 1016.6 |
| 20260504032845 | 65 | 161 | 2.0 | 4.0 | 0.00 | 0.00 | 0.00 | 52 | 1016.6 |
| 20260504032344 | 66 | 170 | 2.0 | 5.0 | 0.00 | 0.00 | 0.00 | 52 | 1016.6 |
| 20260504031844 | 66 | 188 | 2.0 | 5.0 | 0.00 | 0.00 | 0.00 | 52 | 1016.6 |
| 20260504031344 | 66 | 188 | 2.0 | 5.0 | 0.00 | 0.00 | 0.00 | 52 | 1016.4 |
| 20260504030950 | 67 | 217 | 2.0 | 6.0 | 0.00 | 0.00 | 0.00 | 53 | 1016.5 |
| 20260504030845 | 66 | 190 | 2.0 | 6.0 | 0.00 | 0.00 | 0.00 | 52 | 1016.4 |
| 20260504030344 | 66 | 178 | 2.0 | 6.0 | 0.00 | 0.00 | 0.00 | 52 | 1016.4 |
| 20260504025847 | 67 | 202 | 2.0 | 6.0 | 0.00 | 0.00 | 0.00 | 53 | 1016.4 |
| 20260504025842 | 67 | 162 | 2.0 | 5.0 | 0.00 | 0.00 | 0.00 | 52 | 1016.3 |
| 20260504024342 | 67 | 172 | 1.0 | 5.0 | 0.00 | 0.00 | 0.00 | 52 | 1016.5 |
| 20260504023842 | 67 | 157 | 2.0 | 4.0 | 0.00 | 0.00 | 0.00 | 52 | 1016.5 |
| 20260504023343 | 67 | 187 | 2.0 | 4.0 | 0.00 | 0.00 | 0.00 | 52 | 1016.5 |
| 20260504022838 | 67 | 171 | 2.0 | 4.0 | 0.00 | 0.00 | 0.00 | 52 | 1016.5 |
| 20260504022340 | 68 | 187 | 1.0 | 5.0 | 0.00 | 0.00 | 0.00 | 52 | 1016.3 |
| 20260504022336 | 67 | 169 | 1.0 | 4.0 | 0.00 | 0.00 | 0.00 | 52 | 1016.4 |
| 20260504021340 | 68 | 175 | 2.0 | 4.0 | 0.00 | 0.00 | 0.00 | 53 | 1016.2 |
| 20260504021336 | 68 | 163 | 2.0 | 5.0 | 0.00 | 0.00 | 0.00 | 52 | 1016.3 |
| 20260504020336 | 68 | 169 | 2.0 | 4.0 | 0.00 | 0.00 | 0.00 | 53 | 1016.2 |
| 20260504015835 | 68 | 192 | 1.0 | 3.0 | 0.00 | 0.00 | 0.00 | 53 | 1016.2 |
| 20260504015336 | 68 | 179 | 1.0 | 3.0 | 0.00 | 0.00 | 0.00 | 53 | 1016.1 |
| 20260504014836 | 69 | 179 | 1.0 | 3.0 | 0.00 | 0.00 | 0.00 | 53 | 1016.1 |
| 20260504014334 | 69 | 144 | 1.0 | 3.0 | 0.00 | 0.00 | 0.00 | 53 | 1016.0 |
| 20260504013834 | 69 | 168 | 1.0 | 3.0 | 0.00 | 0.00 | 0.00 | 53 | 1016.1 |
| 20260504013334 | 69 | 167 | 1.0 | 3.0 | 0.00 | 0.00 | 0.00 | 53 | 1016.0 |
| 20260504012834 | 70 | 159 | 1.0 | 3.0 | 0.00 | 0.00 | 0.00 | 53 | 1015.9 |
| 20260504012331 | 70 | 173 | 1.0 | 4.0 | 0.00 | 0.00 | 0.00 | 52 | 1015.9 |
| 20260504011830 | 70 | 150 | 1.0 | 4.0 | 0.00 | 0.00 | 0.00 | 52 | 1015.9 |
| 20260504011330 | 70 | 157 | 2.0 | 6.0 | 0.00 | 0.00 | 0.00 | 52 | 1016.0 |
| 20260504010830 | 71 | 155 | 2.0 | 6.0 | 0.00 | 0.00 | 0.00 | 51 | 1016.1 |
| 20260504010333 | 71 | 167 | 2.0 | 5.0 | 0.00 | 0.00 | 0.00 | 51 | 1016.0 |
| 20260504010329 | 71 | 169 | 1.0 | 3.0 | 0.00 | 0.00 | 0.00 | 51 | 1016.1 |
| 20260504005329 | 72 | 161 | 2.0 | 6.0 | 0.00 | 0.00 | 0.00 | 50 | 1016.0 |
| 20260504004829 | 72 | 225 | 2.0 | 7.0 | 0.00 | 0.00 | 0.00 | 50 | 1016.1 |
| 20260504004334 | 73 | 184 | 2.0 | 12.0 | 0.00 | 0.00 | 0.00 | 49 | 1016.0 |
| 20260504004330 | 72 | 194 | 2.0 | 7.0 | 0.00 | 0.00 | 0.00 | 50 | 1016.1 |
| 20260504003328 | 73 | 177 | 2.0 | 12.0 | 0.00 | 0.00 | 0.00 | 49 | 1016.1 |
| 20260504002826 | 73 | 158 | 2.0 | 6.0 | 0.00 | 0.00 | 0.00 | 49 | 1016.1 |
| 20260504002325 | 74 | 203 | 3.0 | 7.0 | 0.00 | 0.00 | 0.00 | 47 | 1016.2 |
| 20260504001825 | 74 | 183 | 3.0 | 8.0 | 0.00 | 0.00 | 0.00 | 46 | 1016.2 |
| 20260504001329 | 74 | 202 | 2.0 | 6.0 | 0.00 | 0.00 | 0.00 | 46 | 1016.2 |
| 20260504001325 | 74 | 136 | 2.0 | 8.0 | 0.00 | 0.00 | 0.00 | 46 | 1016.1 |
| 20260504000324 | 74 | 182 | 2.0 | 6.0 | 0.00 | 0.00 | 0.00 | 46 | 1016.1 |
| 20260503235824 | 74 | 199 | 3.0 | 12.0 | 0.00 | 0.00 | 0.00 | 45 | 1016.3 |
| 20260503235323 | 74 | 179 | 3.0 | 12.0 | 0.00 | 0.00 | 0.00 | 45 | 1016.4 |
| 20260503234823 | 75 | 199 | 3.0 | 7.0 | 0.00 | 0.00 | 0.00 | 45 | 1016.4 |
| 20260503234324 | 75 | 140 | 3.0 | 7.0 | 0.00 | 0.00 | 0.00 | 44 | 1016.4 |
| 20260503233823 | 75 | 147 | 3.0 | 8.0 | 0.00 | 0.00 | 0.00 | 43 | 1016.5 |
| 20260503233323 | 75 | 172 | 3.0 | 8.0 | 0.00 | 0.00 | 0.00 | 43 | 1016.6 |
| 20260503232821 | 76 | 161 | 3.0 | 9.0 | 0.00 | 0.00 | 0.00 | 43 | 1016.6 |
| 20260503232325 | 76 | 173 | 4.0 | 10.0 | 0.00 | 0.00 | 0.00 | 42 | 1016.6 |
| 20260503232321 | 76 | 188 | 3.0 | 10.0 | 0.00 | 0.00 | 0.00 | 42 | 1016.6 |
| 20260503231319 | 77 | 157 | 4.0 | 10.0 | 0.00 | 0.00 | 0.00 | 41 | 1016.5 |
| 20260503230819 | 77 | 160 | 4.0 | 10.0 | 0.00 | 0.00 | 0.00 | 41 | 1016.7 |
| 20260503230317 | 77 | 227 | 5.0 | 13.0 | 0.00 | 0.00 | 0.00 | 40 | 1016.6 |
| 20260503225817 | 77 | 159 | 4.0 | 14.0 | 0.00 | 0.00 | 0.00 | 39 | 1016.7 |
| 20260503225317 | 78 | 190 | 5.0 | 14.0 | 0.00 | 0.00 | 0.00 | 40 | 1016.8 |
| 20260503224816 | 78 | 159 | 5.0 | 12.0 | 0.00 | 0.00 | 0.00 | 39 | 1016.9 |
| 20260503224320 | 77 | 225 | 5.0 | 12.0 | 0.00 | 0.00 | 0.00 | 40 | 1016.9 |
| 20260503224315 | 78 | 183 | 5.0 | 12.0 | 0.00 | 0.00 | 0.00 | 41 | 1016.9 |
| 20260503223319 | 77 | 176 | 6.0 | 13.0 | 0.00 | 0.00 | 0.00 | 39 | 1017.0 |
| 20260503223315 | 77 | 198 | 5.0 | 13.0 | 0.00 | 0.00 | 0.00 | 41 | 1016.9 |
| 20260503222315 | 77 | 147 | 6.0 | 13.0 | 0.00 | 0.00 | 0.00 | 39 | 1017.0 |
| 20260503221815 | 78 | 168 | 6.0 | 14.0 | 0.00 | 0.00 | 0.00 | 39 | 1017.0 |
| 20260503221315 | 78 | 140 | 6.0 | 14.0 | 0.00 | 0.00 | 0.00 | 38 | 1017.2 |
| 20260503220815 | 78 | 163 | 5.0 | 12.0 | 0.00 | 0.00 | 0.00 | 39 | 1017.1 |
| 20260503220315 | 78 | 165 | 5.0 | 11.0 | 0.00 | 0.00 | 0.00 | 38 | 1017.2 |
| 20260503215816 | 78 | 151 | 5.0 | 10.0 | 0.00 | 0.00 | 0.00 | 38 | 1017.3 |
| 20260503215312 | 79 | 202 | 4.0 | 15.0 | 0.00 | 0.00 | 0.00 | 38 | 1017.3 |
| 20260503214811 | 78 | 224 | 5.0 | 15.0 | 0.00 | 0.00 | 0.00 | 37 | 1017.4 |
| 20260503214309 | 78 | 138 | 6.0 | 15.0 | 0.00 | 0.00 | 0.00 | 37 | 1017.6 |
| 20260503213809 | 78 | 167 | 6.0 | 15.0 | 0.00 | 0.00 | 0.00 | 36 | 1017.7 |
| 20260503213309 | 78 | 171 | 5.0 | 13.0 | 0.00 | 0.00 | 0.00 | 37 | 1017.7 |
| 20260503212809 | 78 | 128 | 4.0 | 11.0 | 0.00 | 0.00 | 0.00 | 36 | 1017.8 |
| 20260503212309 | 78 | 180 | 4.0 | 12.0 | 0.00 | 0.00 | 0.00 | 38 | 1017.9 |
| 20260503211813 | 78 | 161 | 5.0 | 12.0 | 0.00 | 0.00 | 0.00 | 35 | 1018.1 |
| 20260503211809 | 78 | 169 | 4.0 | 12.0 | 0.00 | 0.00 | 0.00 | 36 | 1018.0 |
| 20260503210807 | 79 | 215 | 5.0 | 11.0 | 0.00 | 0.00 | 0.00 | 34 | 1018.2 |
| 20260503210307 | 79 | 152 | 5.0 | 11.0 | 0.00 | 0.00 | 0.00 | 35 | 1018.3 |
| 20260503205807 | 79 | 204 | 5.0 | 11.0 | 0.00 | 0.00 | 0.00 | 35 | 1018.3 |
| 20260503205307 | 80 | 193 | 4.0 | 9.0 | 0.00 | 0.00 | 0.00 | 33 | 1018.3 |
| 20260503204810 | 80 | 87 | 4.0 | 10.0 | 0.00 | 0.00 | 0.00 | 35 | 1018.5 |
| 20260503204806 | 80 | 198 | 3.0 | 10.0 | 0.00 | 0.00 | 0.00 | 35 | 1018.5 |
| 20260503203805 | 79 | 184 | 5.0 | 12.0 | 0.00 | 0.00 | 0.00 | 35 | 1018.6 |
| 20260503203302 | 79 | 156 | 5.0 | 12.0 | 0.00 | 0.00 | 0.00 | 35 | 1018.7 |
| 20260503202802 | 80 | 135 | 5.0 | 12.0 | 0.00 | 0.00 | 0.00 | 35 | 1018.9 |
| 20260503202301 | 80 | 156 | 5.0 | 14.0 | 0.00 | 0.00 | 0.00 | 37 | 1019.0 |
| 20260503201805 | 80 | 197 | 5.0 | 14.0 | 0.00 | 0.00 | 0.00 | 40 | 1019.1 |
| 20260503201801 | 79 | 199 | 4.0 | 14.0 | 0.00 | 0.00 | 0.00 | 36 | 1019.1 |
| 20260503200803 | 80 | 114 | 5.0 | 13.0 | 0.00 | 0.00 | 0.00 | 36 | 1019.1 |
| 20260503200759 | 80 | 159 | 4.0 | 10.0 | 0.00 | 0.00 | 0.00 | 37 | 1019.0 |
| 20260503195759 | 80 | 146 | 5.0 | 13.0 | 0.00 | 0.00 | 0.00 | 37 | 1019.2 |
| 20260503195259 | 80 | 232 | 5.0 | 13.0 | 0.00 | 0.00 | 0.00 | 36 | 1019.3 |
| 20260503194759 | 80 | 180 | 5.0 | 13.0 | 0.00 | 0.00 | 0.00 | 37 | 1019.3 |
| 20260503194259 | 80 | 178 | 4.0 | 12.0 | 0.00 | 0.00 | 0.00 | 36 | 1019.4 |
| 20260503193759 | 80 | 247 | 4.0 | 12.0 | 0.00 | 0.00 | 0.00 | 33 | 1019.5 |
| 20260503193259 | 80 | 211 | 4.0 | 12.0 | 0.00 | 0.00 | 0.00 | 33 | 1019.5 |
| 20260503192759 | 80 | 169 | 3.0 | 11.0 | 0.00 | 0.00 | 0.00 | 37 | 1019.6 |
| 20260503192259 | 79 | 186 | 5.0 | 14.0 | 0.00 | 0.00 | 0.00 | 35 | 1019.7 |
| 20260503191802 | 79 | 215 | 5.0 | 11.0 | 0.00 | 0.00 | 0.00 | 33 | 1019.8 |
| 20260503191758 | 79 | 121 | 5.0 | 14.0 | 0.00 | 0.00 | 0.00 | 35 | 1019.8 |
| 20260503190757 | 80 | 160 | 4.0 | 11.0 | 0.00 | 0.00 | 0.00 | 33 | 1019.9 |
| 20260503190302 | 79 | 144 | 4.0 | 11.0 | 0.00 | 0.00 | 0.00 | 33 | 1020.0 |
| 20260503190257 | 80 | 218 | 4.0 | 11.0 | 0.00 | 0.00 | 0.00 | 34 | 1020.0 |
| 20260503185257 | 78 | 134 | 5.0 | 11.0 | 0.00 | 0.00 | 0.00 | 33 | 1020.2 |
| 20260503184755 | 78 | 166 | 4.0 | 12.0 | 0.00 | 0.00 | 0.00 | 34 | 1020.3 |
| 20260503184255 | 79 | 188 | 3.0 | 12.0 | 0.00 | 0.00 | 0.00 | 37 | 1020.4 |
| 20260503183755 | 79 | 232 | 3.0 | 11.0 | 0.00 | 0.00 | 0.00 | 37 | 1020.4 |
| 20260503183255 | 78 | 208 | 4.0 | 13.0 | 0.00 | 0.00 | 0.00 | 39 | 1020.5 |
| 20260503182754 | 78 | 213 | 4.0 | 13.0 | 0.00 | 0.00 | 0.00 | 37 | 1020.6 |
| 20260503182255 | 78 | 146 | 4.0 | 11.0 | 0.00 | 0.00 | 0.00 | 35 | 1020.7 |
| 20260503181753 | 79 | 103 | 3.0 | 10.0 | 0.00 | 0.00 | 0.00 | 38 | 1020.7 |
| 20260503181253 | 78 | 168 | 3.0 | 9.0 | 0.00 | 0.00 | 0.00 | 38 | 1020.8 |
| 20260503180757 | 78 | 197 | 4.0 | 11.0 | 0.00 | 0.00 | 0.00 | 36 | 1021.0 |
| 20260503180753 | 78 | 185 | 4.0 | 10.0 | 0.00 | 0.00 | 0.00 | 37 | 1020.9 |
| 20260503175753 | 78 | 196 | 5.0 | 14.0 | 0.00 | 0.00 | 0.00 | 39 | 1021.1 |
| 20260503175257 | 78 | 165 | 4.0 | 9.0 | 0.00 | 0.00 | 0.00 | 39 | 1021.2 |
| 20260503175253 | 78 | 164 | 5.0 | 14.0 | 0.00 | 0.00 | 0.00 | 38 | 1021.2 |
| 20260503174903 | 78 | 173 | 4.0 | 11.0 | 0.00 | 0.00 | 0.00 | 38 | 1021.3 |
| 20260503174859 | 78 | 190 | 4.0 | 11.0 | 0.00 | 0.00 | 0.00 | 39 | 1021.2 |
| 20260503173253 | 78 | 205 | 3.0 | 11.0 | 0.00 | 0.00 | 0.00 | 36 | 1021.5 |
| 20260503172753 | 78 | 209 | 4.0 | 12.0 | 0.00 | 0.00 | 0.00 | 42 | 1021.5 |
| 20260503172253 | 77 | 169 | 4.0 | 12.0 | 0.00 | 0.00 | 0.00 | 39 | 1021.6 |
| 20260503171751 | 77 | 155 | 3.0 | 8.0 | 0.00 | 0.00 | 0.00 | 39 | 1021.7 |
| 20260503171255 | 76 | 176 | 2.0 | 7.0 | 0.00 | 0.00 | 0.00 | 42 | 1021.8 |
| 20260503171251 | 77 | 190 | 2.0 | 8.0 | 0.00 | 0.00 | 0.00 | 40 | 1021.7 |
| 20260503170249 | 76 | 226 | 2.0 | 10.0 | 0.00 | 0.00 | 0.00 | 40 | 1021.9 |
| 20260503150737 | 69 | 164 | 2.0 | 8.0 | 0.00 | 0.00 | 0.00 | 33 | 1022.4 |
| 20260503150236 | 68 | 202 | 2.0 | 4.0 | 0.00 | 0.00 | 0.00 | 32 | 1022.4 |
| 20260503131225 | 56 | 231 | 1.0 | 4.0 | 0.00 | 0.00 | 0.00 | 1 | 1021.7 |
| 20260503130727 | 56 | 235 | 0.0 | 2.0 | 0.00 | 0.00 | 0.00 | 1 | 1021.6 |
| 20260503130227 | 56 | 242 | 1.0 | 3.0 | 0.00 | 0.00 | 0.00 | 1 | 1021.6 |
| 20260503120212 | 53 | 229 | 0.0 | 2.0 | 0.00 | 0.00 | 0.00 | 1 | 1021.0 |
| 20260503110706 | 53 | 223 | 0.0 | 2.0 | 0.00 | 0.00 | 0.00 | 1 | 1020.7 |
| 20260503110204 | 53 | 223 | 0.0 | 2.0 | 0.00 | 0.00 | 0.00 | 1 | 1020.7 |
| 20260503100155 | 54 | 212 | 0.0 | 3.0 | 0.00 | 0.00 | 0.00 | 1 | 1020.4 |
| 20260503090152 | 55 | 159 | 0.0 | 1.0 | 0.00 | 0.00 | 0.00 | 4 | 1020.3 |
| 20260503081251 | 56 | 148 | 0.0 | 2.0 | 0.00 | 0.00 | 0.00 | 15 | 1020.2 |
| 20260503081149 | 56 | 159 | 0.0 | 1.0 | 0.00 | 0.00 | 0.00 | 15 | 1020.2 |
| 20260503081145 | 56 | 159 | 0.0 | 2.0 | 0.00 | 0.00 | 0.00 | 13 | 1020.2 |
| 20260503072643 | 57 | 199 | 0.0 | 1.0 | 0.00 | 0.00 | 0.00 | 27 | 1020.4 |
| 20260503072144 | 57 | 199 | 0.0 | 1.0 | 0.00 | 0.00 | 0.00 | 28 | 1020.5 |
| 20260503071644 | 58 | 199 | 0.0 | 1.0 | 0.00 | 0.00 | 0.00 | 29 | 1020.6 |
| 20260503071143 | 58 | 199 | 0.0 | 1.0 | 0.00 | 0.00 | 0.00 | 30 | 1020.6 |
| 20260503070641 | 58 | 199 | 0.0 | 2.0 | 0.00 | 0.00 | 0.00 | 32 | 1020.6 |
| 20260503070145 | 58 | 196 | 0.0 | 1.0 | 0.00 | 0.00 | 0.00 | 33 | 1020.7 |
| 20260503070141 | 58 | 199 | 0.0 | 2.0 | 0.00 | 0.00 | 0.00 | 33 | 1020.7 |
| 20260503060134 | 60 | 197 | 1.0 | 4.0 | 0.00 | 0.00 | 0.00 | 39 | 1020.9 |
| 20260503054631 | 61 | 197 | 1.0 | 3.0 | 0.00 | 0.00 | 0.00 | 41 | 1020.9 |
| 20260503054131 | 61 | 192 | 1.0 | 4.0 | 0.00 | 0.00 | 0.00 | 42 | 1021.1 |
| 20260503053633 | 60 | 168 | 2.0 | 4.0 | 0.00 | 0.00 | 0.00 | 44 | 1021.1 |
| 20260503053628 | 61 | 178 | 2.0 | 4.0 | 0.00 | 0.00 | 0.00 | 43 | 1021.0 |
| 20260503052629 | 60 | 207 | 2.0 | 4.0 | 0.00 | 0.00 | 0.00 | 44 | 1021.0 |
| 20260503052129 | 60 | 196 | 1.0 | 4.0 | 0.00 | 0.00 | 0.00 | 44 | 1020.9 |
| 20260503051629 | 60 | 188 | 1.0 | 3.0 | 0.00 | 0.00 | 0.00 | 44 | 1020.8 |
| 20260503051134 | 61 | 193 | 1.0 | 2.0 | 0.00 | 0.00 | 0.00 | 44 | 1020.8 |
| 20260503051129 | 61 | 193 | 0.0 | 2.0 | 0.00 | 0.00 | 0.00 | 44 | 1020.9 |
| 20260503050129 | 61 | 193 | 1.0 | 2.0 | 0.00 | 0.00 | 0.00 | 45 | 1020.8 |
| 20260503045629 | 61 | 196 | 1.0 | 4.0 | 0.00 | 0.00 | 0.00 | 45 | 1020.8 |
| 20260503045130 | 61 | 190 | 1.0 | 4.0 | 0.00 | 0.00 | 0.00 | 46 | 1020.8 |
| 20260503044630 | 61 | 207 | 1.0 | 3.0 | 0.00 | 0.00 | 0.00 | 46 | 1020.8 |
| 20260503044130 | 61 | 218 | 1.0 | 4.0 | 0.00 | 0.00 | 0.00 | 47 | 1020.8 |
| 20260503043628 | 61 | 209 | 1.0 | 4.0 | 0.00 | 0.00 | 0.00 | 48 | 1020.8 |
| 20260503043130 | 62 | 208 | 1.0 | 3.0 | 0.00 | 0.00 | 0.00 | 49 | 1020.7 |
| 20260503043125 | 62 | 184 | 1.0 | 4.0 | 0.00 | 0.00 | 0.00 | 50 | 1020.7 |
| 20260503042124 | 62 | 192 | 1.0 | 4.0 | 0.00 | 0.00 | 0.00 | 50 | 1020.7 |
| 20260503041621 | 62 | 176 | 1.0 | 4.0 | 0.00 | 0.00 | 0.00 | 50 | 1020.7 |
| 20260503041121 | 62 | 179 | 1.0 | 3.0 | 0.00 | 0.00 | 0.00 | 50 | 1020.7 |
| 20260503040620 | 62 | 175 | 1.0 | 3.0 | 0.00 | 0.00 | 0.00 | 50 | 1020.7 |
| 20260503040119 | 62 | 175 | 1.0 | 2.0 | 0.00 | 0.00 | 0.00 | 50 | 1020.7 |
| 20260503035620 | 62 | 175 | 1.0 | 3.0 | 0.00 | 0.00 | 0.00 | 50 | 1020.6 |
| 20260503035116 | 62 | 180 | 1.0 | 4.0 | 0.00 | 0.00 | 0.00 | 50 | 1020.6 |